Weather History for Meadville, PA

Change the Weather History Date:

Saturday, May 18, 2013

  Actual Average Record
Temperature  
Mean Temperature 68 °F -  
Max Temperature 80 °F 69 °F 88 °F (1962)
Min Temperature 55 °F 43 °F 30 °F (1984)
Cooling Degree Days 2    
Growing Degree Days 18 (Base 50)    
Moisture  
Dew Point 45 °F    
Average Humidity 47    
Maximum Humidity 73    
Minimum Humidity 28    
Precipitation  
Precipitation 0.00 in - - ()
Sea Level Pressure  
Sea Level Pressure 30.12 in    
Wind  
Wind Speed 6 mph (East)    
Max Wind Speed 9 mph    
Max Gust Speed -    
Visibility 10 miles    
Events      
Averages and records for this station are not official NWS values.
T = Trace of Precipitation, MM = Missing Value Source: NWS Daily Summary

Daily Weather History Graph

Daily Weather History Graph

Search for Another Location

Airport:

Trip Planner

Search our weather history database for the weather conditions in past years. The results will help you decide how hot, cold, wet, or windy it might be!

Date:

Astronomy

May. 18, 2013 Rise Set
Actual Time 5:58 AM EDT 8:36 PM EDT
Civil Twilight 5:26 AM EDT 9:08 PM EDT
Nautical Twilight 4:46 AM EDT 9:49 PM EDT
Astronomical Twilight 4:01 AM EDT 10:34 PM EDT
Moon 1:33 PM EDT (5/18) 1:55 AM EDT (5/18)
Length of Visible Light 15h 42m
Length of Day
14h 38m
First Quarter, 55% of the Moon is Illuminated
May 18
First Quarter
May 25
Full
May 31
Last Quarter
Jun 8
New
Jun 16
First Quarter

Hourly Weather History & Observations

Time (EDT) Temp. Dew Point Humidity Pressure Visibility Wind Dir Wind Speed Gust Speed Precip Events Conditions
12:53 AM 55.9 °F 44.1 °F 64% 30.16 in 10.0 mi ENE 6.9 mph - N/A   Scattered Clouds
1:53 AM 59.0 °F 42.1 °F 53% 30.14 in 10.0 mi East 5.8 mph - N/A   Mostly Cloudy
2:53 AM 55.0 °F 44.1 °F 67% 30.14 in 10.0 mi NE 6.9 mph - N/A   Mostly Cloudy
3:53 AM 59.0 °F 39.9 °F 49% 30.13 in 10.0 mi East 9.2 mph - N/A   Mostly Cloudy
4:53 AM 57.9 °F 39.9 °F 51% 30.12 in 10.0 mi Variable 4.6 mph - N/A   Mostly Cloudy
5:53 AM 57.9 °F 39.0 °F 49% 30.13 in 10.0 mi East 5.8 mph - N/A   Mostly Cloudy
6:53 AM 57.9 °F 39.0 °F 49% 30.14 in 10.0 mi East 5.8 mph - N/A   Clear
7:53 AM 59.0 °F 39.9 °F 49% 30.17 in 10.0 mi Variable 3.5 mph - N/A   Scattered Clouds
8:53 AM 60.1 °F 42.1 °F 51% 30.18 in 10.0 mi East 5.8 mph - N/A   Clear
9:53 AM 63.0 °F 43.0 °F 48% 30.17 in 10.0 mi Variable 3.5 mph - N/A   Clear
10:53 AM 66.0 °F 46.0 °F 48% 30.15 in 10.0 mi Variable 4.6 mph - N/A   Clear
11:53 AM 70.0 °F 48.0 °F 46% 30.15 in 10.0 mi East 3.5 mph - N/A   Clear
12:53 PM 72.0 °F 48.9 °F 44% 30.14 in 10.0 mi Variable 4.6 mph - N/A   Overcast
1:53 PM 75.0 °F 46.0 °F 36% 30.12 in 10.0 mi Variable 5.8 mph - N/A   Partly Cloudy
3:53 PM 79.0 °F 46.0 °F 31% 30.08 in 10.0 mi East 8.1 mph - N/A   Clear
4:53 PM 79.0 °F 44.1 °F 29% 30.07 in 10.0 mi East 4.6 mph - N/A   Clear
5:53 PM 80.1 °F 44.1 °F 28% 30.06 in 10.0 mi Calm Calm - N/A   Clear
6:53 PM 79.0 °F 43.0 °F 28% 30.06 in 10.0 mi East 3.5 mph - N/A   Clear
7:53 PM 75.9 °F 44.1 °F 32% 30.06 in 10.0 mi East 5.8 mph - N/A   Clear
8:53 PM 66.9 °F 48.9 °F 52% 30.08 in 10.0 mi NE 4.6 mph - N/A   Clear
9:53 PM 69.1 °F 48.0 °F 47% 30.09 in 10.0 mi East 5.8 mph - N/A   Clear
10:53 PM 68.0 °F 55.0 °F 63% 30.10 in 10.0 mi Variable 4.6 mph - N/A   Clear
11:53 PM 64.9 °F 55.9 °F 73% 30.09 in 10.0 mi Variable 3.5 mph - N/A   Clear